• Em Portugal
  • Lista de países
  • Para 7 dias
  • Temperatura da água
  • Mapas de satélite
  • Mapa do tempo
  • Widgets de tempo
  • user-avatar
    Iniciar Sessão

    Previsão horária em Mazatenango

    Hoje, 21 Setembro, Quinta-feira

    Tempo Temperatura Precipitação Vento Pressão Humidade
    00:00 +25°C° 0,6 mm 1 m/s 726 mmHg 91%
    01:00 +25°C° 0,6 mm 1 m/s 726 mmHg 89%
    02:00 +25°C° 0,6 mm 1 m/s 726 mmHg 88%
    03:00 +25°C° 0,6 mm 1 m/s 725 mmHg 87%
    04:00 +25°C° 0,4 mm 1 m/s 725 mmHg 86%
    05:00 +25°C° 0,4 mm 1 m/s 725 mmHg 85%
    06:00 +24°C° 0,4 mm 1 m/s 725 mmHg 84%
    07:00 +27°C° 0,2 mm 1 m/s 726 mmHg 78%
    08:00 +29°C° 0,2 mm 1 m/s 726 mmHg 72%
    09:00 +31°C° 0,2 mm 2 m/s 726 mmHg 66%
    10:00 +32°C° 0,2 mm 2 m/s 726 mmHg 65%
    11:00 +32°C° 0,2 mm 2 m/s 726 mmHg 64%
    12:00 +34°C° 0,2 mm 3 m/s 726 mmHg 64%
    13:00 +33°C° 0,7 mm 3 m/s 725 mmHg 66%
    14:00 +33°C° 0,7 mm 3 m/s 724 mmHg 69%
    15:00 +33°C° 0,7 mm 3 m/s 724 mmHg 71%
    16:00 +30°C° 1 mm 3 m/s 724 mmHg 77%
    17:00 +29°C° 1 mm 3 m/s 724 mmHg 83%
    18:00 +27°C° 1 mm 3 m/s 724 mmHg 88%
    19:00 +27°C° 0,8 mm 3 m/s 724 mmHg 89%
    20:00 +26°C° 0,8 mm 3 m/s 725 mmHg 89%
    21:00 +26°C° 0,8 mm 2 m/s 726 mmHg 89%
    22:00 +26°C° 0,5 mm 2 m/s 726 mmHg 88%
    23:00 +25°C° 0,5 mm 2 m/s 725 mmHg 87%

    Amanhã, 22 Setembro, Sexta-feira

    Tempo Temperatura Precipitação Vento Pressão Humidade
    00:00 +25°C° 0,5 mm 2 m/s 725 mmHg 86%
    01:00 +25°C° 0,1 mm 2 m/s 725 mmHg 85%
    02:00 +25°C° 0,1 mm 2 m/s 724 mmHg 83%
    03:00 +25°C° 0,1 mm 2 m/s 724 mmHg 82%
    04:00 +24°C° 0,1 mm 2 m/s 724 mmHg 81%
    05:00 +24°C° 0,1 mm 2 m/s 724 mmHg 79%
    06:00 +24°C° 0,1 mm 2 m/s 724 mmHg 77%
    07:00 +27°C° 0,1 mm 2 m/s 725 mmHg 71%
    08:00 +29°C° 0,1 mm 2 m/s 725 mmHg 66%
    09:00 +31°C° 0,1 mm 2 m/s 726 mmHg 60%
    10:00 +32°C° 0,3 mm 2 m/s 726 mmHg 60%
    11:00 +34°C° 0,3 mm 2 m/s 725 mmHg 60%
    12:00 +34°C° 0,3 mm 2 m/s 725 mmHg 60%
    13:00 +32°C° 0,7 mm 2 m/s 724 mmHg 66%
    14:00 +31°C° 0,7 mm 2 m/s 724 mmHg 71%
    15:00 +30°C° 0,7 mm 2 m/s 723 mmHg 77%
    16:00 +29°C° 1,4 mm 2 m/s 723 mmHg 82%
    17:00 +28°C° 1,4 mm 2 m/s 723 mmHg 87%
    18:00 +27°C° 1,4 mm 1 m/s 723 mmHg 92%
    19:00 +26°C° 1,1 mm 1 m/s 724 mmHg 92%
    20:00 +26°C° 1,1 mm 1 m/s 725 mmHg 92%
    21:00 +26°C° 1,1 mm 1 m/s 725 mmHg 92%
    22:00 +26°C° 0,4 mm 1 m/s 725 mmHg 92%
    23:00 +26°C° 0,4 mm 1 m/s 725 mmHg 92%

    Depois de amanhã, 23 Setembro, Sábado

    Tempo Temperatura Precipitação Vento Pressão Humidade
    00:00 +25°C° 0,4 mm 1 m/s 725 mmHg 91%
    01:00 +25°C° 0,2 mm 1 m/s 725 mmHg 91%
    02:00 +25°C° 0,2 mm 1 m/s 724 mmHg 90%
    03:00 +25°C° 0,2 mm 1 m/s 723 mmHg 90%
    04:00 +25°C° 0,1 mm 1 m/s 724 mmHg 89%
    05:00 +25°C° 0,1 mm 1 m/s 724 mmHg 89%
    06:00 +25°C° 0,1 mm 1 m/s 724 mmHg 88%
    07:00 +26°C° 0,3 mm 1 m/s 724 mmHg 85%
    08:00 +27°C° 0,3 mm 1 m/s 725 mmHg 82%
    09:00 +28°C° 0,3 mm 1 m/s 725 mmHg 79%
    10:00 +29°C° 0,3 mm 1 m/s 725 mmHg 75%
    11:00 +30°C° 0,3 mm 1 m/s 725 mmHg 72%
    12:00 +31°C° 0,3 mm 1 m/s 725 mmHg 68%
    13:00 +30°C° 0,7 mm 2 m/s 724 mmHg 72%
    14:00 +30°C° 0,7 mm 2 m/s 723 mmHg 76%
    15:00 +29°C° 0,7 mm 2 m/s 723 mmHg 80%
    16:00 +28°C° 1,2 mm 2 m/s 723 mmHg 84%
    17:00 +27°C° 1,2 mm 1 m/s 723 mmHg 88%
    18:00 +27°C° 1,2 mm 1 m/s 723 mmHg 91%
    19:00 +26°C° 0,9 mm 1 m/s 724 mmHg 91%
    20:00 +26°C° 0,9 mm 1 m/s 724 mmHg 91%
    21:00 +26°C° 0,9 mm 1 m/s 725 mmHg 91%
    22:00 +25°C° 0,7 mm 1 m/s 725 mmHg 90%
    23:00 +25°C° 0,7 mm 1 m/s 725 mmHg 89%

    24 Setembro, Domingo

    Tempo Temperatura Precipitação Vento Pressão Humidade
    00:00 +25°C° 0,7 mm 1 m/s 724 mmHg 88%
    01:00 +25°C° 0,8 mm 1 m/s 724 mmHg 88%
    02:00 +25°C° 0,8 mm 2 m/s 723 mmHg 87%
    03:00 +25°C° 0,8 mm 2 m/s 723 mmHg 86%
    04:00 +25°C° 0,5 mm 1 m/s 723 mmHg 85%
    05:00 +25°C° 0,5 mm 1 m/s 724 mmHg 84%
    06:00 +25°C° 0,5 mm 1 m/s 724 mmHg 83%
    07:00 +26°C° 0,4 mm 1 m/s 724 mmHg 79%
    08:00 +28°C° 0,4 mm 1 m/s 725 mmHg 76%
    09:00 +27°C° 0,4 mm 0 m/s 725 mmHg 72%
    10:00 +30°C° 0,5 mm 1 m/s 725 mmHg 71%
    11:00 +30°C° 0,5 mm 1 m/s 724 mmHg 69%
    12:00 +31°C° 0,5 mm 2 m/s 724 mmHg 68%
    13:00 +30°C° 0,7 mm 2 m/s 723 mmHg 72%
    14:00 +30°C° 0,7 mm 2 m/s 723 mmHg 76%
    15:00 +29°C° 0,7 mm 3 m/s 722 mmHg 80%
    16:00 +28°C° 0,6 mm 2 m/s 722 mmHg 83%
    17:00 +27°C° 0,6 mm 2 m/s 723 mmHg 87%
    18:00 +26°C° 0,6 mm 2 m/s 723 mmHg 90%
    19:00 +26°C° 0,5 mm 1 m/s 723 mmHg 90%
    20:00 +26°C° 0,5 mm 1 m/s 724 mmHg 89%
    21:00 +26°C° 0,5 mm 1 m/s 724 mmHg 88%
    22:00 +26°C° 0,6 mm 1 m/s 724 mmHg 87%
    23:00 +26°C° 0,6 mm 1 m/s 724 mmHg 87%

    25 Setembro, Segunda-feira

    Tempo Temperatura Precipitação Vento Pressão Humidade
    00:00 +26°C° 0,6 mm 1 m/s 724 mmHg 86%
    01:00 +26°C° 0,8 mm 1 m/s 723 mmHg 85%
    02:00 +25°C° 0,8 mm 1 m/s 723 mmHg 84%
    03:00 +25°C° 0,8 mm 1 m/s 723 mmHg 84%
    04:00 +25°C° 0,3 mm 1 m/s 723 mmHg 83%
    05:00 +25°C° 0,3 mm 1 m/s 723 mmHg 82%
    06:00 +25°C° 0,3 mm 1 m/s 723 mmHg 81%
    07:00 +27°C° 0,2 mm 1 m/s 724 mmHg 78%
    08:00 +28°C° 0,2 mm 1 m/s 724 mmHg 75%
    09:00 +29°C° 0,2 mm 1 m/s 725 mmHg 72%
    10:00 +30°C° 0,4 mm 1 m/s 724 mmHg 71%
    11:00 +30°C° 0,4 mm 1 m/s 724 mmHg 70%
    12:00 +31°C° 0,4 mm 1 m/s 724 mmHg 69%
    13:00 +30°C° 0,8 mm 1 m/s 723 mmHg 72%
    14:00 +29°C° 0,8 mm 1 m/s 723 mmHg 76%
    15:00 +29°C° 0,8 mm 1 m/s 722 mmHg 79%
    16:00 +28°C° 0,7 mm 1 m/s 723 mmHg 82%
    17:00 +25°C° 0,7 mm 0 m/s 723 mmHg 85%
    18:00 +25°C° 0,7 mm 0 m/s 723 mmHg 88%
    19:00 +24°C° 0,9 mm 0 m/s 724 mmHg 88%
    20:00 +26°C° 0,9 mm 1 m/s 724 mmHg 89%
    21:00 +26°C° 0,9 mm 1 m/s 725 mmHg 89%
    22:00 +26°C° 0,7 mm 1 m/s 724 mmHg 89%
    23:00 +26°C° 0,7 mm 1 m/s 724 mmHg 88%

    26 Setembro, Terça-feira

    Tempo Temperatura Precipitação Vento Pressão Humidade
    00:00 +25°C° 0,7 mm 1 m/s 724 mmHg 88%
    01:00 +25°C° 0,7 mm 1 m/s 723 mmHg 87%
    02:00 +25°C° 0,7 mm 1 m/s 723 mmHg 87%
    03:00 +25°C° 0,7 mm 2 m/s 723 mmHg 86%
    04:00 +25°C° 0,6 mm 2 m/s 723 mmHg 85%
    05:00 +25°C° 0,6 mm 2 m/s 723 mmHg 85%
    06:00 +25°C° 0,6 mm 2 m/s 723 mmHg 85%
    07:00 +26°C° 0,5 mm 2 m/s 723 mmHg 83%
    08:00 +27°C° 0,5 mm 3 m/s 723 mmHg 81%
    09:00 +28°C° 0,5 mm 3 m/s 724 mmHg 79%
    10:00 +28°C° 0,8 mm 3 m/s 723 mmHg 79%
    11:00 +29°C° 0,8 mm 3 m/s 723 mmHg 80%
    12:00 +29°C° 0,8 mm 3 m/s 723 mmHg 80%
    13:00 +28°C° 3,8 mm 3 m/s 722 mmHg 85%
    14:00 +27°C° 3,8 mm 2 m/s 721 mmHg 91%
    15:00 +26°C° 3,8 mm 2 m/s 721 mmHg 96%
    16:00 +26°C° 4,3 mm 2 m/s 721 mmHg 96%
    17:00 +26°C° 4,3 mm 1 m/s 722 mmHg 96%
    18:00 +25°C° 4,3 mm 1 m/s 722 mmHg 96%
    19:00 +25°C° 2,6 mm 1 m/s 723 mmHg 96%
    20:00 +25°C° 2,6 mm 1 m/s 723 mmHg 96%
    21:00 +25°C° 2,6 mm 1 m/s 724 mmHg 96%
    22:00 +25°C° 1,7 mm 1 m/s 723 mmHg 95%
    23:00 +25°C° 1,7 mm 1 m/s 723 mmHg 95%
    Mostrar mais